Regional Weather Roundup
Issued by NWS Grand Forks, ND

Home | Current Version | Previous Version | Text Only | Print | Product List | Glossary Off
Versions: 1 2 3 4 5 6 7 8 9 10 11 12 13 14 15 16 17 18 19 20 21 22 23 24 25 26 27 28 29 30 31 32 33 34 35 36 37 38 39 40 41 42 43 44 45 46 47 48 49 50

000
ASUS43 KFGF 211931
RWRFGF
PRAIRIE TO PINES  WEATHER ROUNDUP
NATIONAL WEATHER SERVICE EASTERN NORTH DAKOTA/GRAND FORKS ND
200 PM CDT SUN SEP 21 2014

 **SATELLITE DATA USED TO AUGMENT SKY COVER AT AUTOMATED STATIONS**
 *****  WEATHER ACROSS EASTERN NORTH DAKOTA  *****

CITY           SKY/WX    TMP DP  RH WIND       PRES   REMARKS
GRAND FORKS    PTSUNNY   63  50  62 NW8       30.22F
GRAND FRKS AFB MOSUNNY   63  52  68 N9        30.23S
GRAND FRKS NWS   N/A     66 N/A N/A N7          N/A
DEVILS LAKE    PTSUNNY   64  46  52 NW10      30.22F
FARGO          CLOUDY    62  51  67 N7        30.23S
WAHPETON ARPT  PTCLDY    63  46  55 N9        30.23S
$$

 ***** WEATHER ACROSS CENTRAL AND WESTERN NORTH DAKOTA  *****

CITY           SKY/WX    TMP DP  RH WIND       PRES   REMARKS
BISMARCK       SUNNY     72  46  39 W6        30.28F
MINOT          SUNNY     69  39  33 W9        30.24F
JAMESTOWN      SUNNY     65  49  56 NW10      30.24F
MINOT AFB      SUNNY     68  42  37 VRB7      30.24F
GARRISON         N/A     69  44  40 W8        30.26F
WILLISTON      SUNNY     71  39  31 SW8       30.27F
DICKINSON      SUNNY     69  40  34 W8        30.28F
HETTINGER      SUNNY     68  38  33 SW5       30.31F
$$

 *****  OTHER AIRPORT OBSERVATIONS IN OUR AREA  *****

CITY           SKY/WX    TMP DP  RH WIND       PRES   REMARKS
WALHALLA         N/A     63  50  63 E3        30.21F
GRAFTON AIRPOR FAIR      61  50  67 N10       30.22F
VALLEY CITY AR MOCLDY    64  50  59 N12       30.24S
CANDO          FAIR      66  46  48 NW6       30.23F
CAVALIER APRT  FAIR      63  50  63 NE3       30.21F
GWINNER        MOCLDY    66  48  52 N9G17     30.25F
ROLLA          FAIR      64  45  48 NW8       30.24F
 ***** THE ABOVE OBSERVATIONS ARE NON NWS ARE NOT QUALITY
       CONTROLLED AND MAY MIS-REPORT RAIN FOR SNOW...
$$

  *****  WEATHER ACROSS NORTHERN MINNESOTA  *****

CITY           SKY/WX    TMP DP  RH WIND       PRES   REMARKS
FLAG ISLAND    PTSUNNY   57  48  72 N5        30.16S
WARROAD        CLOUDY    61  52  72 W10       30.19R
ROSEAU         CLOUDY    59  52  77 W9        30.20S
HALLOCK        MOSUNNY   61  52  72 NW9       30.21S
THF RVR FALLS  CLOUDY    57  50  77 W8        30.21S
BAUDETTE       SUNNY     60  48  64 NW9       30.17F
WASKISH        PTSUNNY   61  52  72 CALM      30.18S
CROOKSTON      CLOUDY    57  52  82 N3        30.23F
STEPHEN NDAWN    N/A     61  54  77 NW7         N/A
GREENBUSH NDAW   N/A     57  52  82 NW6         N/A
$$
  *****  WEATHER ACROSS CENTRAL AND WEST MINNESOTA  *****

CITY           SKY/WX    TMP DP  RH WIND       PRES   REMARKS
FOSSTON        CLOUDY    57  52  82 N3        30.22F
BEMIDJI        PTSUNNY   60  50  68 NW10      30.19S
PARK RAPIDS    CLOUDY    62  47  57 NW12      30.19F
ELBOW LAKE     CLOUDY    59  50  72 NW12G17   30.22F
WADENA         CLOUDY    57  48  72 NW8       30.20S
DETROIT LAKES  CLOUDY    55  50  82 NW9       30.24S
MOORHEAD       MOSUNNY   63  54  72 NE8       30.24F
FERGUS FALLS   PTSUNNY   61  46  59 N10       30.24S
MORRIS MN      MOSUNNY   63  52  67 N14G21    30.21F
STAPLES        PTSUNNY   61  46  59 NW9       30.19S
$$
  *****  WEATHER ELSEWHERE ACROSS MINNESOTA  *****

CITY           SKY/WX    TMP DP  RH WIND       PRES   REMARKS
DULUTH         MOSUNNY   61  37  41 N15G21    30.11S
INTRNTL FALLS  SUNNY     61  43  51 NW7       30.15F
ELY            SUNNY     57  39  51 NW7       30.12F
CLOQUET        SUNNY     63  39  42 NW16G23   30.13R
WHEATON        MOSUNNY   64  48  55 NW13G21   30.24F
BRAINERD       SUNNY     62  46  55 N14G21    30.18R
HIBBING        SUNNY     63  40  42 N14       30.14S
ALEXANDRIA     CLOUDY    59  49  69 N13       30.22S
SAINT CLOUD    PTSUNNY   66  49  54 N9        30.16F
MINNEAPOLIS    MOSUNNY   63  46  54 NW16G24   30.14S
$$

  *****  WEATHER ACROSS SOUTH DAKOTA  *****

CITY           SKY/WX    TMP DP  RH WIND       PRES   REMARKS
SIOUX FALLS    MOSUNNY   70  45  40 N10G26    30.23F
BROOKINGS      NOT AVBL
WATERTOWN      SUNNY     67  45  45 N14       30.24S
HURON          MOSUNNY   71  45  39 N16G25    30.26F
SISSETON         N/A     68  49  50 N14       30.22F
ABERDEEN       PTSUNNY   67  47  48 N8        30.26F
MITCHELL       MOSUNNY   71  45  39 N10G22    30.27F
PIERRE         SUNNY     70  43  37 VRB7      30.28F
MOBRIDGE       SUNNY     70  45  40 MISG      30.26F
RAPID CITY     SUNNY     71  38  29 VRB5      30.33F
$$

  *****  SOME WEATHER IN NEARBY STATES *****

CITY           SKY/WX    TMP DP  RH WIND       PRES   REMARKS
GLASGOW MT     SUNNY     70  36  28 S6        30.24F
GREAT FALLS MT SUNNY     69  44  40 E6        30.18F
CHEYENNE WY    SUNNY     67  41  38 S17G26    30.38F
SCOTTSBLUFF NE SUNNY     71  39  31 SE13G18   30.35F
OMAHA NE       MOSUNNY   71  46  40 N21G29    30.21F
DES MOINES IA  MOSUNNY   71  47  42 N14G24    30.14S
DAVENPORT IA   CLOUDY    63  48  58 NW17G26   30.06R
CHICAGO IL     CLOUDY    66  50  56 NW16      29.94R
EAU CLAIRE WI  MOSUNNY   65  45  48 NW15G22   30.07S
LA CROSSE WI   MOSUNNY   67  45  45 N20G26    30.05S
$$

  *****  SOME NATIONAL WEATHER *****

CITY           SKY/WX    TMP DP  RH WIND       PRES   REMARKS
LA GUARDIA NY  CLOUDY    73  66  78 CALM      29.71F
RALEIGH NC     MOSUNNY   86  61  42 NW9       29.81F
ATLANTA GA     MOSUNNY   85  57  38 NW12      29.98F
NEW ORLEANS LA MOSUNNY   87  68  52 NE13      30.01F HX  90
OKLAHOMA CITY  PTSUNNY   88  70  55 N10       30.11F HX  93
ALBUQUERQUE NM PTSUNNY   80  52  37 SE15G29   30.28F
SALT LAKE CITY LGT RAIN  67  59  75 SE8       30.18F
LOS ANGELES CA MOSUNNY   73  59  60 SW5       29.99F
BOISE ID       PTSUNNY   82  40  22 S8        30.03S
SEATTLE WA     SUNNY     72  55  55 SW8       29.89F
$$

*** WEATHER ACROSS MANITOBA...SASKATCHEWAN AND ONTARIO ***
                ***ONTARIO***

CITY           SKY/WX    TMP DP  RH WIND       PRES   REMARKS
GERALDTON      CLOUDY    43  37  81 NW14      30.03S
THUNDER BAY    MOSUNNY   57  37  47 NW16G22   30.06S
SIOUX LOOKOUT  PTSUNNY   55  43  62 NW8       30.12S
TORONTO        MOSUNNY   75  54  46 W20       29.56R
BIG TROUT LK   PTSUNNY   48  36  61 W7        30.06F
PICKLE LAKE    MOSUNNY   52  34  50 VRB3      30.08F
DRYDEN         CLOUDY    55  41  58 NW5       30.14S
KENORA         PTSUNNY   57  48  72 W7        30.17S
$$
                *** MANITOBA***

CITY           SKY/WX    TMP DP  RH WIND       PRES   REMARKS
BRANDON        MOSUNNY   64  48  55 W12G18    30.21F
DAUPHIN        SUNNY     68  48  49 W12G21    30.15F
ISLAND LAKE    MOSUNNY   59  45  58 CALM      30.05F
PILOT MOUND    NOT AVBL
THE PAS        MOSUNNY   68  48  49 SW14      30.02
THOMPSON       PTSUNNY   55  50  82 SW10      29.96F
WINNIPEG       PTSUNNY   61  50  67 W7        30.20F
LYNN LAKE      SUNNY     64  45  48 W14G21    29.86F
CHURCHILL      CLOUDY    45  41  87 W14       29.82
GILLAM         PTSUNNY   54  45  71 SW14G23   29.93F
$$
                ***SASKATCHEWAN***

CITY           SKY/WX    TMP DP  RH WIND       PRES   REMARKS
ESTEVAN        SUNNY     68  43  40 W8        30.25F
KINDERSLEY     MOSUNNY   73  41  31 SW16      30.14
LLOYDMINSTER   SUNNY     77  43  29 W16G23    30.07F
PRINCE ALBERT  MOSUNNY   73  46  38 SW16G22   30.05F
REGINA         SUNNY     72  41  33 SW10      30.20F
YORKTON        SUNNY     70  41  35 SW10G17   30.17F
N. BATTLEFORD  SUNNY     79  43  27 SW14G20   30.10F
LA RONGE       MOSUNNY   70  48  46 W13       29.96F
SASKATOON      SUNNY     75  45  33 SW15G21   30.13F
SWIFT CURRENT  SUNNY     72  36  26 SW13G18   30.18F
$$
NOTE: THESE ARE AUTOMATED STATIONS WITH LIMITED QUALITY CONTROL
      "FAIR" INDICATES FEW OR NO CLOUDS BELOW 12,000 FEET WITH NO
      SIGNIFICANT WEATHER AND/OR OBSTRUCTIONS TO VISIBILITY.
      SKY/WX - SKY CONDITION AND SIGNIFICANT WEATHER.
      TMP - AIR TEMPERATURE.    DP   - DEWPOINT TEMPERATURE.
      RH  - RELATIVE HUMIDITY.  PRES - PRESSURE.
      HX  - HEAT INDEX.         WCI  - WIND CHILL INDEX.
$



USA.gov is the U.S. government's official web portal to all federal, state and local government web resources and services.